Time,TemperatureF,DewpointF,PressureIn,WindDirection,WindDirectionDegrees,WindSpeedMPH,WindSpeedGustMPH,Humidity,HourlyPrecipIn,Conditions,Clouds,dailyrainin,SolarRadiationWatts/m^2,SoftwareType,DateUTC
2013-01-13 00:08:00,56.4,56.0,30.04,SW,225,4.0,-999.0,98,-99.99,,,0.02,0,weatherlink.com 1.10,2013-01-13 05:08:00,
2013-01-13 00:23:00,56.4,56.0,30.05,WSW,248,7.0,-999.0,98,-99.99,,,0.02,0,weatherlink.com 1.10,2013-01-13 05:23:00,
2013-01-13 00:38:00,56.5,56.0,30.04,SW,220,7.0,-999.0,98,-99.99,,,0.02,0,weatherlink.com 1.10,2013-01-13 05:38:00,
2013-01-13 00:53:00,56.6,56.0,30.04,WSW,248,5.0,-999.0,98,-99.99,,,0.02,0,weatherlink.com 1.10,2013-01-13 05:53:00,
2013-01-13 01:08:00,56.4,56.0,30.04,WSW,242,9.0,-999.0,98,-99.99,,,0.02,0,weatherlink.com 1.10,2013-01-13 06:08:00,
2013-01-13 01:23:00,56.2,56.0,30.03,SW,236,9.0,-999.0,98,-99.99,,,0.00,0,weatherlink.com 1.10,2013-01-13 06:23:00,
2013-01-13 01:38:00,55.7,55.0,30.03,West,265,10.0,-999.0,98,-99.99,,,0.00,0,weatherlink.com 1.10,2013-01-13 06:38:00,
2013-01-13 01:53:00,55.5,55.0,30.04,West,270,16.0,-999.0,98,-99.99,,,0.00,0,weatherlink.com 1.10,2013-01-13 06:53:00,
2013-01-13 02:08:00,55.9,55.0,30.04,West,261,11.0,-999.0,98,-99.99,,,0.00,0,weatherlink.com 1.10,2013-01-13 07:08:00,
2013-01-13 02:23:00,56.1,55.0,30.03,West,260,9.0,-999.0,97,-99.99,,,0.00,0,weatherlink.com 1.10,2013-01-13 07:23:00,
2013-01-13 02:38:00,56.1,55.0,30.03,SW,236,16.0,-999.0,97,-99.99,,,0.00,0,weatherlink.com 1.10,2013-01-13 07:38:00,
2013-01-13 02:53:00,56.1,55.0,30.03,West,277,4.0,-999.0,96,-99.99,,,0.00,0,weatherlink.com 1.10,2013-01-13 07:53:00,
2013-01-13 03:08:00,56.0,55.0,30.03,NW,304,6.0,-999.0,96,-99.99,,,0.00,0,weatherlink.com 1.10,2013-01-13 08:08:00,
2013-01-13 03:23:00,56.2,55.0,30.04,West,260,26.0,-999.0,95,-99.99,,,0.00,0,weatherlink.com 1.10,2013-01-13 08:23:00,
2013-01-13 03:38:00,56.1,55.0,30.03,West,260,17.0,-999.0,95,-99.99,,,0.00,0,weatherlink.com 1.10,2013-01-13 08:38:00,
2013-01-13 03:53:00,56.2,55.0,30.03,West,260,16.0,-999.0,95,-99.99,,,0.00,0,weatherlink.com 1.10,2013-01-13 08:53:00,
2013-01-13 04:08:00,56.1,55.0,30.02,West,264,7.0,-999.0,95,-99.99,,,0.00,0,weatherlink.com 1.10,2013-01-13 09:08:00,
2013-01-13 04:23:00,56.0,55.0,30.03,WNW,284,5.0,-999.0,95,-99.99,,,0.00,0,weatherlink.com 1.10,2013-01-13 09:23:00,
2013-01-13 04:38:00,56.3,55.0,30.03,West,277,10.0,-999.0,95,-99.99,,,0.00,0,weatherlink.com 1.10,2013-01-13 09:38:00,
2013-01-13 04:53:00,56.4,55.0,30.03,WSW,256,11.0,-999.0,95,-99.99,,,0.00,0,weatherlink.com 1.10,2013-01-13 09:53:00,
2013-01-13 05:08:00,56.3,55.0,30.03,WNW,286,7.0,-999.0,95,-99.99,,,0.00,0,weatherlink.com 1.10,2013-01-13 10:08:00,
2013-01-13 05:23:00,56.1,55.0,30.03,WNW,282,3.0,-999.0,96,-99.99,,,0.00,0,weatherlink.com 1.10,2013-01-13 10:23:00,
2013-01-13 05:38:00,55.7,55.0,30.04,West,267,6.0,-999.0,96,-99.99,,,0.00,0,weatherlink.com 1.10,2013-01-13 10:38:00,
2013-01-13 05:53:00,55.2,54.0,30.04,WSW,248,5.0,-999.0,97,-99.99,,,0.00,0,weatherlink.com 1.10,2013-01-13 10:53:00,
2013-01-13 06:08:00,55.2,54.0,30.04,SW,234,13.0,-999.0,97,-99.99,,,0.00,0,weatherlink.com 1.10,2013-01-13 11:08:00,
2013-01-13 06:23:00,55.3,55.0,30.05,West,275,10.0,-999.0,97,-99.99,,,0.00,0,weatherlink.com 1.10,2013-01-13 11:23:00,
2013-01-13 06:38:00,55.1,54.0,30.05,West,263,9.0,-999.0,97,-99.99,,,0.00,0,weatherlink.com 1.10,2013-01-13 11:38:00,
2013-01-13 06:53:00,54.9,54.0,30.06,WSW,252,13.0,-999.0,97,-99.99,,,0.00,0,weatherlink.com 1.10,2013-01-13 11:53:00,
2013-01-13 07:08:00,54.8,54.0,30.06,West,270,5.0,-999.0,98,-99.99,,,0.00,0,weatherlink.com 1.10,2013-01-13 12:08:00,
2013-01-13 07:23:00,54.8,54.0,30.06,WSW,257,19.0,-999.0,98,-99.99,,,0.00,0,weatherlink.com 1.10,2013-01-13 12:23:00,
2013-01-13 07:38:00,54.4,54.0,30.08,West,271,7.0,-999.0,98,-99.99,,,0.00,0,weatherlink.com 1.10,2013-01-13 12:38:00,
2013-01-13 07:53:00,54.3,54.0,30.07,West,274,6.0,-999.0,98,-99.99,,,0.00,0,weatherlink.com 1.10,2013-01-13 12:53:00,
2013-01-13 08:08:00,54.4,54.0,30.08,WNW,291,6.0,-999.0,98,-99.99,,,0.00,7,weatherlink.com 1.10,2013-01-13 13:08:00,
2013-01-13 08:23:00,54.2,54.0,30.09,West,274,6.0,-999.0,98,-99.99,,,0.00,12,weatherlink.com 1.10,2013-01-13 13:23:00,
2013-01-13 08:38:00,54.6,54.0,30.09,WNW,283,6.0,-999.0,98,-99.99,,,0.00,14,weatherlink.com 1.10,2013-01-13 13:38:00,
2013-01-13 09:08:00,54.8,54.0,30.10,WNW,293,6.0,-999.0,98,-99.99,,,0.00,37,weatherlink.com 1.10,2013-01-13 14:08:00,
2013-01-13 09:38:00,54.9,55.0,30.10,West,263,4.0,-999.0,99,-99.99,,,0.00,90,weatherlink.com 1.10,2013-01-13 14:38:00,
2013-01-13 09:53:00,55.5,55.0,30.10,West,271,5.0,-999.0,98,-99.99,,,0.00,204,weatherlink.com 1.10,2013-01-13 14:53:00,
2013-01-13 10:08:00,55.3,55.0,30.10,WSW,246,7.0,-999.0,98,-99.99,,,0.00,158,weatherlink.com 1.10,2013-01-13 15:08:00,
2013-01-13 10:23:00,55.0,55.0,30.10,WSW,238,8.0,-999.0,99,-99.99,,,0.00,121,weatherlink.com 1.10,2013-01-13 15:23:00,
2013-01-13 10:38:00,55.0,55.0,30.10,NW,306,4.0,-999.0,99,-99.99,,,0.00,62,weatherlink.com 1.10,2013-01-13 15:38:00,
2013-01-13 11:08:00,55.4,55.0,30.09,SW,223,15.0,-999.0,99,-99.99,,,0.00,72,weatherlink.com 1.10,2013-01-13 16:08:00,
2013-01-13 11:23:00,55.4,55.0,30.08,NW,313,5.0,-999.0,99,-99.99,,,0.00,65,weatherlink.com 1.10,2013-01-13 16:23:00,
2013-01-13 11:38:00,55.5,55.0,30.07,WNW,289,10.0,-999.0,99,-99.99,,,0.00,77,weatherlink.com 1.10,2013-01-13 16:38:00,
2013-01-13 11:53:00,55.6,55.0,30.06,WNW,296,6.0,-999.0,99,-99.99,,,0.00,88,weatherlink.com 1.10,2013-01-13 16:53:00,
2013-01-13 12:08:00,56.0,56.0,30.05,WNW,288,11.0,-999.0,99,-99.99,,,0.00,77,weatherlink.com 1.10,2013-01-13 17:08:00,
2013-01-13 12:38:00,56.1,56.0,30.04,SW,218,14.0,-999.0,99,-99.99,,,0.00,28,weatherlink.com 1.10,2013-01-13 17:38:00,
2013-01-13 12:53:00,56.1,56.0,30.04,WSW,256,5.0,-999.0,99,-99.99,,,0.00,39,weatherlink.com 1.10,2013-01-13 17:53:00,
2013-01-13 13:08:00,56.2,56.0,30.04,SW,224,13.0,-999.0,99,-99.99,,,0.00,93,weatherlink.com 1.10,2013-01-13 18:08:00,
2013-01-13 13:23:00,56.4,56.0,30.03,West,271,12.0,-999.0,99,-99.99,,,0.00,40,weatherlink.com 1.10,2013-01-13 18:23:00,
2013-01-13 13:38:00,56.4,56.0,30.03,WSW,245,12.0,-999.0,99,-99.99,,,0.00,35,weatherlink.com 1.10,2013-01-13 18:38:00,
2013-01-13 13:53:00,56.5,56.0,30.02,WSW,248,10.0,-999.0,99,-99.99,,,0.00,58,weatherlink.com 1.10,2013-01-13 18:53:00,
2013-01-13 14:08:00,56.4,56.0,30.02,WNW,296,11.0,-999.0,99,-99.99,,,0.00,26,weatherlink.com 1.10,2013-01-13 19:08:00,
2013-01-13 14:23:00,56.3,56.0,30.03,West,270,9.0,-999.0,99,-99.99,,,0.01,51,weatherlink.com 1.10,2013-01-13 19:23:00,
2013-01-13 14:38:00,56.4,56.0,30.03,WSW,250,4.0,-999.0,99,-99.99,,,0.01,69,weatherlink.com 1.10,2013-01-13 19:38:00,
2013-01-13 14:53:00,56.4,56.0,30.04,West,271,2.0,-999.0,99,-99.99,,,0.01,40,weatherlink.com 1.10,2013-01-13 19:53:00,
2013-01-13 15:08:00,56.3,56.0,30.04,SW,223,7.0,-999.0,99,-99.99,,,0.01,32,weatherlink.com 1.10,2013-01-13 20:08:00,
2013-01-13 15:23:00,56.4,56.0,30.04,West,275,7.0,-999.0,99,-99.99,,,0.01,32,weatherlink.com 1.10,2013-01-13 20:23:00,
2013-01-13 15:38:00,56.3,56.0,30.04,West,279,9.0,-999.0,99,-99.99,,,0.01,30,weatherlink.com 1.10,2013-01-13 20:38:00,
2013-01-13 15:53:00,56.3,56.0,30.04,SSW,202,13.0,-999.0,99,-99.99,,,0.01,33,weatherlink.com 1.10,2013-01-13 20:53:00,
2013-01-13 16:08:00,56.3,56.0,30.04,WSW,252,9.0,-999.0,99,-99.99,,,0.01,23,weatherlink.com 1.10,2013-01-13 21:08:00,
2013-01-13 16:23:00,56.3,56.0,30.05,WNW,284,7.0,-999.0,99,-99.99,,,0.01,25,weatherlink.com 1.10,2013-01-13 21:23:00,
2013-01-13 16:38:00,56.3,56.0,30.05,West,261,5.0,-999.0,99,-99.99,,,0.01,26,weatherlink.com 1.10,2013-01-13 21:38:00,
2013-01-13 16:53:00,56.3,56.0,30.06,WSW,251,8.0,-999.0,99,-99.99,,,0.01,19,weatherlink.com 1.10,2013-01-13 21:53:00,
2013-01-13 17:08:00,56.3,56.0,30.05,West,265,4.0,-999.0,99,-99.99,,,0.01,14,weatherlink.com 1.10,2013-01-13 22:08:00,
2013-01-13 17:23:00,56.3,56.0,30.06,WSW,248,9.0,-999.0,99,-99.99,,,0.01,0,weatherlink.com 1.10,2013-01-13 22:23:00,
2013-01-13 17:38:00,56.0,56.0,30.06,West,265,3.0,-999.0,99,-99.99,,,0.01,0,weatherlink.com 1.10,2013-01-13 22:38:00,
2013-01-13 17:53:00,56.1,56.0,30.06,West,267,5.0,-999.0,99,-99.99,,,0.01,0,weatherlink.com 1.10,2013-01-13 22:53:00,
2013-01-13 18:08:00,56.2,56.0,30.05,SW,234,13.0,-999.0,99,-99.99,,,0.01,0,weatherlink.com 1.10,2013-01-13 23:08:00,
2013-01-13 18:23:00,56.4,56.0,30.05,West,263,7.0,-999.0,99,-99.99,,,0.01,0,weatherlink.com 1.10,2013-01-13 23:23:00,
2013-01-13 18:38:00,56.7,57.0,30.04,SW,236,4.0,-999.0,99,-99.99,,,0.01,0,weatherlink.com 1.10,2013-01-13 23:38:00,
2013-01-13 18:53:00,56.9,57.0,30.05,West,263,10.0,-999.0,99,-99.99,,,0.01,0,weatherlink.com 1.10,2013-01-13 23:53:00,
2013-01-13 19:08:00,56.9,57.0,30.04,West,259,7.0,-999.0,99,-99.99,,,0.01,0,weatherlink.com 1.10,2013-01-14 00:08:00,
2013-01-13 19:23:00,56.9,57.0,30.05,West,259,9.0,-999.0,99,-99.99,,,0.01,0,weatherlink.com 1.10,2013-01-14 00:23:00,
2013-01-13 19:38:00,56.9,57.0,30.04,West,259,11.0,-999.0,99,-99.99,,,0.01,0,weatherlink.com 1.10,2013-01-14 00:38:00,
2013-01-13 19:53:00,56.8,57.0,30.04,SW,232,6.0,-999.0,99,-99.99,,,0.01,0,weatherlink.com 1.10,2013-01-14 00:53:00,
2013-01-13 20:08:00,56.8,57.0,30.04,South,182,5.0,-999.0,99,-99.99,,,0.01,0,weatherlink.com 1.10,2013-01-14 01:08:00,
2013-01-13 20:23:00,56.8,57.0,30.03,SW,219,5.0,-999.0,99,-99.99,,,0.01,0,weatherlink.com 1.10,2013-01-14 01:23:00,
2013-01-13 20:38:00,56.8,57.0,30.04,SW,236,7.0,-999.0,99,-99.99,,,0.01,0,weatherlink.com 1.10,2013-01-14 01:38:00,
2013-01-13 20:53:00,56.8,57.0,30.03,SW,229,7.0,-999.0,99,-99.99,,,0.01,0,weatherlink.com 1.10,2013-01-14 01:53:00,
2013-01-13 21:08:00,56.7,57.0,30.03,South,180,2.0,-999.0,99,-99.99,,,0.01,0,weatherlink.com 1.10,2013-01-14 02:08:00,
2013-01-13 21:23:00,56.8,57.0,30.02,SE,146,11.0,-999.0,99,-99.99,,,0.01,0,weatherlink.com 1.10,2013-01-14 02:23:00,
2013-01-13 21:38:00,56.8,57.0,30.04,SSW,202,5.0,-999.0,99,-99.99,,,0.01,0,weatherlink.com 1.10,2013-01-14 02:38:00,
2013-01-13 21:53:00,56.8,57.0,30.04,South,186,4.0,-999.0,99,-99.99,,,0.01,0,weatherlink.com 1.10,2013-01-14 02:53:00,
2013-01-13 22:08:00,56.7,57.0,30.04,SSW,198,3.0,-999.0,99,-99.99,,,0.01,0,weatherlink.com 1.10,2013-01-14 03:08:00,
2013-01-13 22:23:00,56.7,57.0,30.04,South,186,6.0,-999.0,99,-99.99,,,0.01,0,weatherlink.com 1.10,2013-01-14 03:23:00,
2013-01-13 22:38:00,56.6,56.0,30.04,SW,221,7.0,-999.0,99,-99.99,,,0.01,0,weatherlink.com 1.10,2013-01-14 03:38:00,
2013-01-13 22:53:00,56.6,56.0,30.04,SSW,200,13.0,-999.0,99,-99.99,,,0.01,0,weatherlink.com 1.10,2013-01-14 03:53:00,
2013-01-13 23:08:00,56.6,56.0,30.03,South,191,7.0,-999.0,99,-99.99,,,0.01,0,weatherlink.com 1.10,2013-01-14 04:08:00,
2013-01-13 23:23:00,56.6,56.0,30.03,SSE,161,5.0,-999.0,99,-99.99,,,0.01,0,weatherlink.com 1.10,2013-01-14 04:23:00,
2013-01-13 23:38:00,56.5,56.0,30.03,South,182,5.0,-999.0,99,-99.99,,,0.01,0,weatherlink.com 1.10,2013-01-14 04:38:00,
2013-01-13 23:53:00,56.5,56.0,30.04,South,178,9.0,-999.0,99,-99.99,,,0.01,0,weatherlink.com 1.10,2013-01-14 04:53:00,